OpenBCM V1.08-5-g2f4a (Linux)

Packet Radio Mailbox

IZ3LSV

[San Dona' di P. JN]

 Login: GUEST





  
CX2SA  > KEPS     06.09.24 01:33l 402 Lines 19222 Bytes #73 (0) @ AMSAT
BID : ORB24250.1
Read: GUEST
Subj: 2Line Orbital Elements 24250.AMSAT
Path: IZ3LSV<I0OJJ<N6RME<CX2SA
Sent: 240906/0024Z @:CX2SA.SAL.URY.SOAM #:43500 [Salto] FBB7.00e $:ORB24250.1
From: CX2SA@CX2SA.SAL.URY.SOAM
To  : KEPS@AMSAT


QST de W1STR

AMSAT Orbital Elements for Amateur Satellites in TLE Format
>From Orbital Analysis Office
New England Sci-Tech STEM Education Center
Natick, MA September 06, 2024
To all radio amateurs


These element sets describe the orbits of various satellites
in use by the amateur radio community. For details see:
www.amsat.org/keplerian-elements-formats/

A daily update of element sets is available at:
www.amsat.org/tle/daily-bulletin.txt
or without bulletin text:
www.amsat.org/tle/dailytle.txt


AO-07
1 07530U 74089B   24249.59620258 -.00000027  00000-0  12069-3 0  9992
2 07530 101.9846 245.0124 0011884 291.9792 179.4960 12.53678953279110
UO-11
1 14781U 84021B   24249.50457036  .00005310  00000-0  59435-3 0  9995
2 14781  97.7131 216.4231 0008594 159.9232 200.2324 14.87266364160420
AO-27
1 22825U 93061C   24249.69318814  .00000578  00000-0  23876-3 0  9998
2 22825  98.7812 303.2819 0008143 196.4890 163.6028 14.30569172614392
FO-29
1 24278U 96046B   24249.26846523  .00000173  00000-0  21351-3 0  9991
2 24278  98.5792 173.4212 0349820 341.0222  17.8147 13.53206015385263
NOAA-15
1 25338U 98030A   24249.82126801  .00000768  00000-0  33502-3 0  9997
2 25338  98.5654 275.2546 0011477  89.9115 270.3381 14.26693139368931
GO-32
1 25397U 98043D   24249.47458997  .00000525  00000-0  24801-3 0  9994
2 25397  98.9305 217.4296 0000460 344.9267  15.1898 14.24111259358848
ISS
1 25544U 98067A   24249.55933001  .00022679  00000-0  41180-3 0  9990
2 25544  51.6404 277.1848 0011054 323.6465 135.9932 15.49412367471016
NO-44
1 26931U 01043C   24249.84545881  .00000834  00000-0  34554-3 0  9992
2 26931  67.0502 123.1626 0007729 268.9033  91.1183 14.31354506197653
SO-50
1 27607U 02058C   24249.51605962  .00005289  00000-0  71840-3 0  9999
2 27607  64.5575 334.5479 0026091  67.5223 292.8640 14.79564206168206
CO-55
1 27844U 03031E   24249.51020004  .00001489  00000-0  67456-3 0  9998
2 27844  98.6796 255.4342 0008430 272.2284  87.7929 14.23433103 99216
CO-57
1 27848U 03031J   24249.47649740  .00001277  00000-0  58786-3 0  9992
2 27848  98.6827 255.5993 0008410 291.1155  68.9124 14.22850086 98953
RS-22
1 27939U 03042A   24249.87801956  .00006117  00000-0  10155-2 0  9993
2 27939  98.3013  47.4238 0012160 161.2477 339.5895 14.70492582120133
NOAA-18
1 28654U 05018A   24249.77559555  .00000754  00000-0  42524-3 0  9994
2 28654  98.8699 326.0589 0014166 190.9362 169.1504 14.13312747994648
CO-58
1 28895U 05043F   24249.32892362  .00007778  00000-0  13497-2 0  9995
2 28895  98.2130  25.3483 0016309 104.0887 256.2131 14.68405473  6210
CO-65
1 32785U 08021C   24249.34075415  .00015386  00000-0  12967-2 0  9996
2 32785  97.7641 214.0993 0013285  64.2701 295.9891 14.98208338887471
AAUSAT2
1 32788U 08021F   24249.75917574  .00059787  00000-0  25098-2 0  9997
2 32788  97.6001 230.5426 0002771 182.5850 177.5372 15.23232970890666
CO-66
1 32791U 08021J   24249.45442463  .00025806  00000-0  17512-2 0  9995
2 32791  97.6981 220.3269 0007346  60.0601 300.1355 15.06368334888674
RS-30
1 32953U 08025A   24249.87401820  .00000041  00000-0  22431-3 0  9998
2 32953  82.5034  39.2844 0018608 289.2487  70.6580 12.43147242739150
PRISM
1 33493U 09002B   24249.20251651  .00062550  00000-0  24659-2 0  9992
2 33493  98.1957 304.0064 0009270 331.3689  28.7037 15.25300892851210
NOAA-19
1 33591U 09005A   24249.80935429  .00000672  00000-0  38372-3 0  9997
2 33591  99.0400 306.4363 0014656  67.3617 292.9103 14.13104679803016
SRMSAT
1 37841U 11058D   24248.60030295  .00001060  00000-0  43474-3 0  9995
2 37841  19.9730  36.4436 0011663 248.0324 191.6985 14.11192536665795
RS-40
1 38735U 12041C   24249.53160487  .00000066  00000-0  40533-3 0  9999
2 38735  82.4741 119.8030 0018259  45.0931 315.1626 12.42614777549152
ZACUBE-1
1 39417U 13066B   24249.84775045  .00013430  00000-0  13429-2 0  9993
2 39417  97.7410 204.1016 0046980 252.5679 107.0400 14.90737863583591
Delfi-N3xt
1 39428U 13066N   24249.77561373  .00015983  00000-0  19480-2 0  9992
2 39428  97.8326 166.0613 0097613 185.7608 174.2490 14.80067824578183
GOMX-1
1 39430U 13066Q   24249.87820667  .00008242  00000-0  13454-2 0  9995
2 39430  97.7190 119.3615 0138441 356.8951   3.1379 14.64917885574853
LO-74
1 39440U 13066AA  24249.82671099  .00015343  00000-0  17441-2 0  9994
2 39440  97.8162 191.8235 0068660  12.3593 347.9285 14.84621774581492
AO-73
1 39444U 13066AE  24249.84267448  .00018884  00000-0  17378-2 0  9991
2 39444  97.7268 207.4491 0044299 230.2006 129.5311 14.94036113582732
DTUSAT-2
1 40030U 14033W   24249.84412150  .00018608  00000-0  14876-2 0  9995
2 40030  98.0185 204.5438 0007300 250.7887 109.2546 15.00255079555290
EO-80
1 40032U 14033Y   24249.87742990  .00018621  00000-0  14881-2 0  9999
2 40032  98.0097 204.5634 0007345 217.7044 142.3665 15.00269144555286
XW-2C
1 40906U 15049H   24249.84840102  .00076355  00000-0  13495-2 0  9996
2 40906  97.4735 269.1263 0006639  36.4214 323.7488 15.50052806496937
XW-2D
1 40907U 15049J   24249.82136838  .00145919  00000-0  15865-2 0  9995
2 40907  97.4651 272.7383 0003320  38.6318 321.5177 15.62976907497236
LILACSAT-2
1 40908U 15049K   24249.84317208  .00022773  00000-0  81672-3 0  9992
2 40908  97.5244 259.2525 0013778  72.1292 288.1449 15.28630232495807
XW-2B
1 40911U 15049N   24249.83520321  .00138182  00000-0  15879-2 0  9994
2 40911  97.4628 272.6958 0003761  42.4819 317.6729 15.61567122497097
IO-86
1 40931U 15052B   24231.70395842  .00002296  00000-0  22250-3 0  9993
2 40931   5.9997 265.9807 0013402 250.6059 109.2619 14.78018769480834
ChubuSat-2
1 41338U 16012B   24249.19128294  .00014735  00000-0  88402-3 0  9991
2 41338  30.9999 235.4088 0010756 315.1178  44.8590 15.09715671469691
ChubuSat-3
1 41339U 16012C   24249.30092626  .00013146  00000-0  80428-3 0  9999
2 41339  31.0068 233.7324 0010847 320.4223  39.5623 15.08987556469595
Horyu-4
1 41340U 16012D   24249.17453275  .00034169  00000-0  15540-2 0  9997
2 41340  31.0009 173.2458 0007534  61.0938 299.0458 15.19540621470319
Lapan A3
1 41603U 16040E   24249.84917501  .00008866  00000-0  34495-3 0  9997
2 41603  97.1425 259.9609 0012342 165.7690 194.3900 15.26165283455526
Pratham
1 41783U 16059A   24249.58691549  .00003215  00000-0  60059-3 0  9996
2 41783  97.8352 265.1594 0033720 124.2046 236.2362 14.65213237424317
CAS-2T
1 41847U 16066G   24249.54812827  .00002880  00000-0  42835-3 0  9994
2 41847  98.4540 320.2506 0351372 295.3647  61.1548 14.41715934411078
CAS-4B
1 42759U 17034B   24249.86680899  .00039939  00000-0  12493-2 0  9991
2 42759  43.0151 129.3520 0011881 179.9363 180.1494 15.32407624399767
CAS-4A
1 42761U 17034D   24249.86132580  .00041883  00000-0  13021-2 0  9992
2 42761  43.0189 127.6700 0011865 192.3696 167.6868 15.32584151399779
D-SAT
1 42794U 17036AF  24249.50237858  .00015468  00000-0  10330-2 0  9995
2 42794  97.4814 228.5270 0105599 234.6923 124.4393 15.02561087392808
TechnoSat
1 42829U 17042E   24249.05692211  .00011497  00000-0  98551-3 0  9999
2 42829  97.3890  65.7129 0012683 157.5803 202.5977 14.97613982389127
AO-91
1 43017U 17073E   24249.14427560  .00024553  00000-0  14480-2 0  9991
2 43017  97.5645 121.8527 0204976  26.5612 334.5938 14.95530486367601
TianYi 6
1 43158U 18008D   24249.66568682  .00240690  00000-0  23476-2 0  9991
2 43158  97.2488 299.3114 0007121 164.3692 195.7789 15.65426158366972
S-Net D
1 43186U 18014G   24249.29454694  .00014058  00000-0  96779-3 0  9999
2 43186  97.5793 149.7543 0012286  94.0734 266.1897 15.05927180360559
S-Net B
1 43187U 18014H   24249.23079744  .00013423  00000-0  92435-3 0  9993
2 43187  97.5801 149.6473 0013170  90.2761 269.9975 15.05916493360544
S-Net A
1 43188U 18014J   24249.69430246  .00013451  00000-0  92579-3 0  9992
2 43188  97.5805 150.2225 0012928  89.6652 270.6056 15.05938964360617
S-Net C
1 43189U 18014K   24249.69799683  .00013148  00000-0  90477-3 0  9994
2 43189  97.5823 150.1899 0014735  83.1737 277.1166 15.05929678359169
Ten-Koh
1 43677U 18084G   24249.31513288  .00010494  00000-0  91537-3 0  9996
2 43677  98.0728  45.2899 0014925 111.1287 249.1531 14.96961238318705
PO-101
1 43678U 18084H   24249.89700166  .00005454  00000-0  49291-3 0  9993
2 43678  98.0815  50.3212 0009628 120.8031 239.4137 14.95867691318988
QO-100
1 43700U 18090A   24249.25761153  .00000143  00000-0  00000-0 0  9991
2 43700   0.0139 217.1892 0002583 342.9169 263.2958  1.00273848 21169
MinXSS-2
1 43758U 18099A   24249.14077200  .00028127  00000-0  16422-2 0  9993
2 43758  97.5459 310.3757 0016046  47.8399 312.4191 15.11774373314852
AO-95
1 43770U 18099N   24249.66424221  .00020367  00000-0  13265-2 0  9993
2 43770  97.5369 305.8603 0014456  90.5317 269.7567 15.07874785314688
RANGE-B
1 43772U 18099Q   24249.70453101  .00031475  00000-0  17741-2 0  9994
2 43772  97.5166 309.7093 0004489   2.2139 357.9111 15.13117399314883
RANGE-A
1 43773U 18099R   24249.73118556  .00013022  00000-0  95106-3 0  9990
2 43773  97.4944 300.4081 0014492  65.3744 294.8990 15.03701349314538
MOVE-II
1 43780U 18099Y   24249.70889320  .00056031  00000-0  25029-2 0  9992
2 43780  97.5130 312.1752 0005958  68.4658 291.7212 15.21122787315148
SNUSat 2
1 43782U 18099AA  24249.39692598  .00016717  00000-0  11224-2 0  9997
2 43782  97.5055 304.3056 0014506  34.5801 325.6367 15.06791473314648
SnugLite
1 43784U 18099AC  24249.68039870  .00020966  00000-0  13581-2 0  9998
2 43784  97.4878 303.8823 0005054  54.7298 305.4402 15.08145063314769
ITASat 1
1 43786U 18099AE  24249.71024101  .00017856  00000-0  12254-2 0  9995
2 43786  97.5017 304.7482 0017699  80.0932 280.2292 15.05921357314686
